This demonstration page uses our WeatherBlox Daily Observations layout. Learn more.

Left ArrowRight Arrow

38.80484, -77.04692

Hourly Observations for October 10, 2021

Temp ( °F °C ) Dew Point ( °F °C ) Humidity (%) Winds ( mph kmh ) Pressure ( in mb ) Visibility ( mi km ) Precip ( " mm )
12:20 am 00:20 Cloudy 67 19.4 61 16.1 81 81 NNE 12 19 30.11 1020 10 16 0.00 0.00
12:52 am 00:52 Cloudy 67 19.4 61 16.1 81 81 NNE 13 20 30.10 1019 10 16 0.00 0.00
1:09 am 01:09 Cloudy 67 19.4 61 16.1 81 81 NNE 13 20 30.10 1019 10 16 0.00 0.00
1:52 am 01:52 Cloudy 66 18.9 61 16.1 84 84 NNE 13 20 30.10 1019 10 16 0.00 0.00
2:09 am 02:09 Cloudy with Drizzle 66 18.9 61 16.1 84 84 NNE 12 19 30.10 1019 3 5 0.00 0.00
2:52 am 02:52 Cloudy with Drizzle 65 18.3 62 16.7 90 90 NNE 10 17 30.08 1019 4 6 0.00 0.00
3:12 am 03:12 Cloudy with Drizzle 65 18.3 62 16.7 90 90 NNE 10 17 30.08 1019 5 8 0.00 0.00
3:52 am 03:52 Cloudy with Drizzle 66 18.9 62 16.7 87 87 NE 12 19 30.06 1018 4 6 0.01 0.25
4:52 am 04:52 Cloudy with Mist and Fog 66 18.9 63 17.2 90 90 NNE 9 15 30.06 1018 5 8 0.00 0.00
5:32 am 05:32 Cloudy 67 19.4 64 17.8 91 91 NNE 8 13 30.07 1018 8 13 0.00 0.00
5:52 am 05:52 Cloudy 67 19.4 64 17.8 91 91 NNE 9 15 30.07 1018 9 14 0.00 0.00
6:22 am 06:22 Cloudy 67 19.4 64 17.8 91 91 NNE 10 17 30.08 1019 9 14 0.00 0.00
6:52 am 06:52 Cloudy 68 20 64 17.8 87 87 NNE 10 17 30.09 1019 7 11 0.00 0.00
7:04 am 07:04 Cloudy 68 20 64 17.8 87 87 NNE 10 17 30.09 1019 10 16 0.00 0.00
7:52 am 07:52 Cloudy 68 20 64 17.8 87 87 NE 10 17 30.10 1019 10 16 0.00 0.00
8:52 am 08:52 Cloudy 69 20.6 64 17.8 84 84 NNE 12 19 30.09 1019 10 16 0.00 0.00
9:52 am 09:52 Cloudy 69 20.6 64 17.8 84 84 NE 9 15 30.09 1019 10 16 0.00 0.00
9:59 am 09:59 Cloudy 69 20.6 64 17.8 84 84 NE 13 20 30.09 1019 10 16 0.00 0.00
10:52 am 10:52 Cloudy 70 21.1 63 17.2 79 79 NE 14 22 30.09 1019 10 16 0.00 0.00
11:08 am 11:08 Cloudy 70 21.1 64 17.8 82 82 NE 12 19 30.09 1019 10 16 0.00 0.00
11:52 am 11:52 Cloudy 70 21.1 63 17.2 79 79 NNE 12 19 30.09 1019 10 16 0.00 0.00
12:52 pm 12:52 Cloudy 70 21.1 63 17.2 79 79 NE 15 24 30.08 1019 10 16 0.00 0.00
1:52 pm 13:52 Cloudy 71 21.7 64 17.8 79 79 NE 12 19 30.06 1018 10 16 0.00 0.00
1:54 pm 13:54 Cloudy 71 21.7 63 17.2 76 76 NE 10 17 30.07 1018 10 16 0.00 0.00
2:52 pm 14:52 Cloudy 72 22.2 63 17.2 73 73 NNE 13 20 30.05 1018 10 16 0.00 0.00
3:52 pm 15:52 Cloudy 73 22.8 63 17.2 71 71 NNE 13 20 30.05 1018 10 16 0.00 0.00
4:52 pm 16:52 Cloudy 73 22.8 62 16.7 69 69 NE 10 17 30.03 1017 10 16 0.00 0.00
5:52 pm 17:52 Cloudy 72 22.2 62 16.7 71 71 NE 14 22 30.03 1017 10 16 0.00 0.00
6:45 pm 18:45 Cloudy 70 21.1 61 16.1 73 73 NE 14 22 30.04 1017 10 16 0.00 0.00
6:52 pm 18:52 Cloudy 70 21.1 61 16.1 73 73 NE 14 22 30.04 1017 10 16 0.00 0.00
7:52 pm 19:52 Cloudy 69 20.6 61 16.1 76 76 NNE 17 28 30.06 1018 10 16 0.00 0.00
8:52 pm 20:52 Cloudy with Light Rain 67 19.4 63 17.2 87 87 NNE 10 17 30.07 1018 4 6 0.02 0.51
9:13 pm 21:13 Cloudy with Light Rain 67 19.4 63 17.2 87 87 N 9 15 30.07 1018 5 8 0.01 0.25
9:52 pm 21:52 Cloudy 67 19.4 63 17.2 87 87 NNE 9 15 30.07 1018 10 16 0.01 0.25
10:01 pm 22:01 Cloudy 67 19.4 62 16.7 84 84 NNE 8 13 30.07 1018 10 16 0.00 0.00
10:15 pm 22:15 Cloudy 67 19.4 62 16.7 84 84 NNE 9 15 30.07 1018 10 16 0.00 0.00
10:52 pm 22:52 Cloudy 67 19.4 62 16.7 84 84 NNE 8 13 30.08 1019 8 13 0.00 0.00
11:26 pm 23:26 Cloudy 67 19.4 62 16.7 84 84 N 9 15 30.08 1019 10 16 0.00 0.00
11:52 pm 23:52 Cloudy 67 19.4 62 16.7 84 84 N 9 15 30.07 1018 10 16 0.00 0.00
11:55 pm 23:55 Cloudy with Drizzle 67 19.4 62 16.7 84 84 NNE 8 13 30.07 1018 7 11 0.00 0.00

Powered by AerisWeather